Overview Statistics Trail Chart Weather Telemetry Raw packets
 

This is the latest recevied weather packets stored in our database for station/object N4UUJ-1. If no packets are shown the sender has not sent any weather packets the latest 10 day(s).

<< 9 10 11 12 13 14 15 >>
Time Temp. Humidity Pressure Rain* Wind** Luminosity Snow
1788135719 23.89° C 75% 1022.5 hPa 0 mm - - -
1788133918 26.67° C 75% 1022.5 hPa 0 mm - - -
1788132117 26.67° C 75% 1022.5 hPa 0 mm - - -
1788130316 27.78° C 75% 1022.6 hPa 0 mm - - -
1788128515 27.78° C 75% 1022.4 hPa 0 mm - - -
1788126714 28.33° C 75% 1022.5 hPa 0 mm - - -
1788124913 28.89° C 75% 1022.4 hPa 0 mm - - -
1788123112 28.89° C 75% 1022.6 hPa 0 mm - - -
1788121311 29.44° C 75% 1022.8 hPa 0 mm - - -
1788119510 30° C 75% 1023.3 hPa 0 mm - - -
1788117709 30° C 75% 1023.7 hPa 0 mm - - -
1788115908 28.33° C 75% 1024.2 hPa 0 mm - - -
1788114107 29.44° C 75% 1024.3 hPa 0 mm - - -
1788112306 29.44° C 75% 1024.6 hPa 0 mm - - -
1788110505 28.89° C 75% 1024.9 hPa 0 mm - - -
1788108704 28.33° C 75% 1025.1 hPa 0 mm - - -
1788106903 27.78° C 75% 1025.4 hPa 0 mm - - -
1788105105 27.78° C 75% 1025.5 hPa 0 mm - - -
1788103301 26.67° C 75% 1025.5 hPa 0 mm - - -
1788101500 26.11° C 75% 1025.4 hPa 0 mm - - -
1788099699 25° C 75% 1025.3 hPa 0 mm - - -
1788097898 25° C 75% 1025.2 hPa 0 mm - - -
1788096097 22.22° C 75% 1024.9 hPa 0 mm - - -
1788094296 20.56° C 75% 1024.7 hPa 0 mm - - -
1788092495 18.89° C 75% 1024.2 hPa 0 mm - - -

* Rain latest hour (hover to see other rain measurements)
** Current wind speed in m/s (hover to see current wind gust speed)